Kelso-Longview, WA

2:34 AM PST on January 18, 2018 (GMT -0800)
Kelso-Longview

Weather History for KKLS - February, 2013

Change the Weather History Date:

Friday, February 22, 2013

  Actual Average Record
Temperature  
Mean Temperature 42 °F -  
Max Temperature 48 °F 49 °F 60 °F (2002)
Min Temperature 37 °F 33 °F 24 °F (2005)
Degree Days  
Heating Degree Days 22    
Moisture  
Dew Point 37 °F    
Average Humidity 81    
Maximum Humidity 87    
Minimum Humidity 70    
Precipitation  
Precipitation 0.84 in - - ()
Sea Level Pressure  
Sea Level Pressure 29.99 in    
Wind  
Wind Speed 9 mph (SSE)    
Max Wind Speed 17 mph    
Max Gust Speed 28 mph    
Visibility 9 miles    
Events      
Averages and records for this station are not official NWS values.
T = Trace of Precipitation, MM = Missing Value Source: NWS Daily Summary

Daily Weather History Graph

Daily Weather History Graph

Search for Another Location

Airport or City:

Trip Planner

Search our weather history database for the weather conditions in past years. The results will help you decide how hot, cold, wet, or windy it might be!

Date:

Astronomy

Feb. 22, 2013 Rise Set
Actual Time 7:02 AM PST 5:48 PM PST
Civil Twilight 6:31 AM PST 6:18 PM PST
Nautical Twilight 5:57 AM PST 6:53 PM PST
Astronomical Twilight 5:22 AM PST 7:28 PM PST
Moon 2:59 PM PST (2/22) 4:57 AM PST (2/22)
Length of Visible Light 11h 46m
Length of Day
10h 46m
Waxing Gibbous, 91% of the Moon is Illuminated
Feb 22
Waxing Gibbous
Feb 25
Full
Mar 4
Last Quarter
Mar 11
New
Mar 19
First Quarter

Hourly Weather History & Observations

Time (PST) Temp. Windchill Dew Point Humidity Pressure Visibility Wind Dir Wind Speed Gust Speed Precip Events Conditions
12:15 AM 42.8 °F 37.5 °F 37.4 °F 81% 30.14 in 10.0 mi SSE 9.2 mph - N/A   Overcast
12:35 AM 42.8 °F 37.5 °F 37.4 °F 81% 30.15 in 10.0 mi SE 9.2 mph - N/A   Overcast
12:55 AM 42.8 °F 38.6 °F 37.4 °F 81% 30.15 in 10.0 mi SE 6.9 mph - N/A   Overcast
1:15 AM 42.8 °F 39.3 °F 37.4 °F 81% 30.14 in 10.0 mi SE 5.8 mph - N/A   Overcast
1:35 AM 42.8 °F 38.6 °F 37.4 °F 81% 30.14 in 10.0 mi SE 6.9 mph - N/A   Overcast
1:55 AM 42.8 °F 37.0 °F 37.4 °F 81% 30.14 in 10.0 mi SE 10.4 mph - N/A   Overcast
2:15 AM 42.8 °F 37.5 °F 37.4 °F 81% 30.13 in 10.0 mi SE 9.2 mph - N/A   Overcast
2:35 AM 42.8 °F 38.0 °F 37.4 °F 81% 30.12 in 10.0 mi SSE 8.1 mph - N/A   Overcast
2:55 AM 42.8 °F 37.0 °F 37.4 °F 81% 30.12 in 10.0 mi SSE 10.4 mph - N/A   Overcast
3:15 AM 42.8 °F 37.0 °F 37.4 °F 81% 30.11 in 10.0 mi SSE 10.4 mph 16.1 mph N/A   Overcast
3:35 AM 42.8 °F 37.0 °F 37.4 °F 81% 30.10 in 10.0 mi SSE 10.4 mph - N/A   Overcast
3:55 AM 42.8 °F 36.6 °F 37.4 °F 81% 30.09 in 10.0 mi SE 11.5 mph 17.3 mph N/A   Overcast
4:15 AM 42.8 °F 36.2 °F 37.4 °F 81% 30.07 in 10.0 mi SE 12.7 mph - N/A   Overcast
4:35 AM 44.6 °F 39.7 °F 37.4 °F 76% 30.07 in 10.0 mi SSE 9.2 mph - N/A   Overcast
4:55 AM 42.8 °F 37.5 °F 37.4 °F 81% 30.07 in 10.0 mi SSE 9.2 mph - N/A   Overcast
5:35 AM 44.6 °F 40.2 °F 37.4 °F 76% 30.06 in 10.0 mi SSE 8.1 mph - N/A   Overcast
5:55 AM 44.6 °F 39.2 °F 37.4 °F 76% 30.05 in 10.0 mi SSE 10.4 mph - N/A   Overcast
6:15 AM 44.6 °F 38.8 °F 37.4 °F 76% 30.04 in 10.0 mi SSE 11.5 mph 16.1 mph N/A   Overcast
6:35 AM 44.6 °F 39.2 °F 37.4 °F 76% 30.01 in 10.0 mi SSE 10.4 mph 19.6 mph N/A   Overcast
6:55 AM 44.6 °F 39.7 °F 37.4 °F 76% 30.01 in 10.0 mi South 9.2 mph 16.1 mph N/A   Overcast
7:15 AM 44.6 °F 39.7 °F 37.4 °F 76% 30.00 in 10.0 mi SSE 9.2 mph 18.4 mph N/A   Overcast
7:35 AM 44.6 °F 39.2 °F 37.4 °F 76% 30.00 in 10.0 mi SSE 10.4 mph 18.4 mph N/A   Overcast
7:55 AM 44.6 °F 38.8 °F 37.4 °F 76% 29.99 in 8.0 mi SSE 11.5 mph 19.6 mph 0.01 in   Overcast
8:15 AM 44.6 °F 38.8 °F 37.4 °F 76% 29.99 in 8.0 mi SSE 11.5 mph 17.3 mph 0.04 in   Overcast
8:35 AM 44.6 °F 39.2 °F 39.2 °F 81% 30.00 in 8.0 mi SE 10.4 mph 19.6 mph 0.07 in   Overcast
8:55 AM 44.6 °F 38.4 °F 39.2 °F 81% 29.98 in 8.0 mi SE 12.7 mph 19.6 mph 0.09 in   Overcast
9:15 AM 44.6 °F 37.4 °F 39.2 °F 81% 29.96 in 10.0 mi SE 16.1 mph 25.3 mph 0.01 in   Overcast
9:35 AM 44.6 °F 37.2 °F 39.2 °F 81% 29.95 in 8.0 mi SE 17.3 mph 27.6 mph 0.05 in   Overcast
9:55 AM 44.6 °F 37.4 °F 39.2 °F 81% 29.96 in 8.0 mi SSE 16.1 mph 25.3 mph 0.09 in   Overcast
10:15 AM 44.6 °F 38.4 °F 39.2 °F 81% 29.96 in 9.0 mi SSE 12.7 mph 20.7 mph 0.04 in   Overcast
10:35 AM 44.6 °F 39.2 °F 39.2 °F 81% 29.95 in 9.0 mi SSE 10.4 mph 17.3 mph 0.10 in   Overcast
10:55 AM 44.6 °F 38.4 °F 39.2 °F 81% 29.94 in 9.0 mi SSE 12.7 mph 19.6 mph 0.16 in   Overcast
11:15 AM 44.6 °F 38.8 °F 39.2 °F 81% 29.94 in 8.0 mi SSE 11.5 mph 21.9 mph 0.04 in   Overcast
11:35 AM 44.6 °F 38.4 °F 39.2 °F 81% 29.93 in 10.0 mi South 12.7 mph 18.4 mph 0.10 in   Overcast
11:55 AM 44.6 °F 39.2 °F 39.2 °F 81% 29.92 in 9.0 mi SSE 10.4 mph 19.6 mph 0.14 in   Overcast
12:15 PM 44.6 °F 39.7 °F 39.2 °F 81% 29.91 in 10.0 mi SSE 9.2 mph 18.4 mph 0.03 in   Overcast
12:35 PM 44.6 °F 38.8 °F 39.2 °F 81% 29.90 in 10.0 mi SSE 11.5 mph 16.1 mph 0.07 in   Overcast
12:55 PM 44.6 °F 38.4 °F 39.2 °F 81% 29.89 in 10.0 mi SSE 12.7 mph 25.3 mph 0.10 in   Mostly Cloudy
1:15 PM 44.6 °F 39.2 °F 39.2 °F 81% 29.89 in 10.0 mi SSE 10.4 mph 20.7 mph 0.02 in   Overcast
1:35 PM 44.6 °F 38.8 °F 39.2 °F 81% 29.88 in 10.0 mi SSE 11.5 mph 20.7 mph 0.04 in   Overcast
1:55 PM 44.6 °F 38.8 °F 39.2 °F 81% 29.87 in 10.0 mi SE 11.5 mph 20.7 mph 0.04 in   Overcast
2:15 PM 44.6 °F 38.8 °F 41.0 °F 87% 29.86 in 8.0 mi SE 11.5 mph 21.9 mph 0.01 in   Overcast
2:35 PM 44.6 °F 37.2 °F 41.0 °F 87% 29.85 in 9.0 mi SE 17.3 mph 24.2 mph 0.03 in   Overcast
2:55 PM 44.6 °F 38.8 °F 41.0 °F 87% 29.89 in 4.0 mi SSW 11.5 mph - 0.06 in   Overcast
3:15 PM 44.6 °F 38.8 °F 41.0 °F 87% 29.88 in 5.0 mi SE 11.5 mph - 0.02 in   Mostly Cloudy
3:35 PM 44.6 °F 40.7 °F 41.0 °F 87% 29.87 in 10.0 mi SSE 6.9 mph - 0.03 in   Overcast
3:55 PM 46.4 °F 42.4 °F 42.8 °F 87% 29.87 in 10.0 mi ESE 8.1 mph - 0.03 in   Overcast
4:15 PM 46.4 °F 42.9 °F 42.8 °F 87% 29.87 in 10.0 mi SSE 6.9 mph - N/A   Overcast
4:35 PM 46.4 °F 41.9 °F 42.8 °F 87% 29.87 in 10.0 mi SSE 9.2 mph - N/A   Overcast
4:55 PM 48.2 °F - 41.0 °F 76% 29.88 in 10.0 mi WNW 3.5 mph - N/A   Overcast
5:15 PM 44.6 °F 39.2 °F 37.4 °F 76% 29.90 in 6.0 mi WNW 10.4 mph 19.6 mph 0.05 in   Overcast
5:35 PM 44.6 °F 39.7 °F 37.4 °F 76% 29.90 in 7.0 mi WNW 9.2 mph 16.1 mph 0.05 in   Overcast
5:55 PM 44.6 °F 39.7 °F 35.6 °F 71% 29.91 in 7.0 mi West 9.2 mph 17.3 mph 0.05 in   Overcast
6:15 PM 44.6 °F 39.7 °F 35.6 °F 71% 29.92 in 10.0 mi West 9.2 mph - N/A   Mostly Cloudy
6:35 PM 41.0 °F 37.1 °F 33.8 °F 76% 29.94 in 5.0 mi WSW 5.8 mph 21.9 mph 0.01 in   Overcast
6:55 PM 42.8 °F 39.3 °F 33.8 °F 70% 29.94 in 10.0 mi West 5.8 mph - 0.01 in   Mostly Cloudy
7:15 PM 41.0 °F - 33.8 °F 76% 29.95 in 10.0 mi Calm Calm - N/A   Partly Cloudy
7:35 PM 39.2 °F - 33.8 °F 81% 29.95 in 10.0 mi Calm Calm - N/A   Scattered Clouds
7:55 PM 39.2 °F - 33.8 °F 81% 29.96 in 10.0 mi Calm Calm - N/A   Partly Cloudy
8:15 PM 37.4 °F - 33.8 °F 87% 29.96 in 10.0 mi Calm Calm - N/A   Scattered Clouds
8:35 PM 39.2 °F 32.5 °F 33.8 °F 81% 29.99 in 9.0 mi West 10.4 mph - N/A   Overcast
8:55 PM 37.4 °F 34.9 °F 33.8 °F 87% 29.98 in 10.0 mi North 3.5 mph - 0.04 in   Mostly Cloudy
9:15 PM 37.4 °F - 33.8 °F 87% 29.99 in 10.0 mi Calm Calm - 0.01 in   Clear
9:35 PM 37.4 °F - 33.8 °F 87% 30.01 in 10.0 mi Calm Calm - 0.01 in   Mostly Cloudy
9:55 PM 37.4 °F - 33.8 °F 87% 30.01 in 8.0 mi Calm Calm - 0.01 in   Overcast
10:15 PM 37.4 °F - 33.8 °F 87% 30.01 in 10.0 mi Calm Calm - N/A   Overcast
10:35 PM 37.4 °F - 33.8 °F 87% 30.02 in 10.0 mi Calm Calm - N/A   Mostly Cloudy
10:55 PM 37.4 °F 33.8 °F 33.8 °F 87% 30.02 in 10.0 mi SSE 4.6 mph - N/A   Mostly Cloudy
11:15 PM 37.4 °F 34.9 °F 33.8 °F 87% 30.03 in 10.0 mi SSE 3.5 mph - 0.01 in   Mostly Cloudy
11:35 PM 37.4 °F 33.8 °F 33.8 °F 87% 30.04 in 10.0 mi South 4.6 mph - 0.01 in   Mostly Cloudy
11:55 PM 39.2 °F 35.9 °F 33.8 °F 81% 30.05 in 10.0 mi SSE 4.6 mph - 0.01 in   Overcast